Showing default

CROCUBE, 62394

Orbit data source: Space-Track

CROCUBE, 62394 is a Croatian payload satellite in LEO that was launched on Sat, 21 Dec 2024 UTC via an FALCON 9 launch vehicle from the Air Force Western Test Range (AFWTR). Payload-class satellites include a variety of spacecraft equipped with specific instruments for various scientific and technological missions. These include communications satellites like Starlink; space stations such as the ISS; scientific satellites like the Hubble; Earth observation satellites from companies like Planet Labs, Umbra, and HawkEye 360; GPS; miniature CubeSats for education and research; and military/defense satellites.

Loading next visibility...
Identifier
62394, 2024-247T
Orbit
LEO
Country
Flag of HRHR / HRV
Related business
Manufacturer
SpaceManic
Mission
Operational Amateur Technology
Bus & Motor
CUBESAT 1U, Unknown motor
Mass
1 kg wet, 1 kg dry
Launch date (UTC)
2024-12-21 (1 year ago)
Launch vehicle
FALCON 9
Launch site
Air Force Western Test Range (AFWTR)
Object type
Payload
Rocket body
Debris
Shape & HBR
Box, 0.1 m
Radar Cross Section
0.015 m², Small (<0.1 m²)

Expand to show TLE details & history
Last TLE update: 2 days ago

TLE from 2 days ago
0 CROCUBE
1 62394U 24247T   25340.11439712  .00038933  00000-0  11379-2 0  9994
2 62394  44.9746 256.5076 0003153  78.8007 281.3233 15.34700535 53556
Epoch: 2025-12-06T02:44Z
TLE epoch observation values (Epoch: 2025-12-06T02:44:43.911Z)
Latitude
0.00002°
Longitude
140.17787°
Altitude
461.383 km
Speed
7.638 km/s
True Right ascension
17h 06m 01s
True Declination
0° 00' 00"
Sunlit
Object was in daylight at epoch
Visualization orbit readout
Latitude
Unknown
Longitude
Unknown
Altitude
Unknown
Speed
Unknown
Apparent Right ascension
Unknown
Apparent Declination
Unknown
Sunlit
N/A
Visualization observer readout
Local Sidereal Time
13:26:42
Azimuth
Unknown
Elevation
Unknown
Doppler factor
Unknown
Orbital elements
Apogee altitude
465.586 km
Perigee altitude
461.271 km
Semi-major axis
6,841.566 km
Eccentricity
0.00032
Inclination
44.9746°
RAAN
256.5076°
Arg. of periapsis
78.8007°
True anomaly
281.28787°
Mean anomaly
281.3233°
Eccentric anomaly
281.30559°
Mean motion
3.83539 °/min
Orbital period
93.86 mins
BSTAR
0.0011379
Loading maneuver chart data...
Computing Atmospheric mass density...
Loading historical data...
Loading historical data...
Loading historical data...
Loading historical data...
Loading historical data...
Loading historical data...
Loading historical data...

Documentation

Showing up to 5 results
|